This demonstration page uses our WeatherBlox Daily Observations layout. Learn more.

Left ArrowRight Arrow

41.86663, -103.66717

Hourly Observations for September 14, 2018

Temp ( °F °C ) Dew Point ( °F °C ) Humidity (%) Winds ( mph kmh ) Pressure ( in mb ) Visibility ( mi km ) Precip ( " mm )
12:53 am 00:53 Clear 61 16.1 53 11.7 75 75 N 5 7 29.80 1009 10 16 N/A
1:53 am 01:53 Clear 59 15 53 11.7 81 81 N N/A 29.81 1010 10 16 N/A
2:53 am 02:53 Clear 56 13.3 52 11.1 87 87 N N/A 29.83 1010 10 16 N/A
3:53 am 03:53 Clear 57 13.9 52 11.1 83 83 N 3 6 29.84 1011 10 16 N/A
4:53 am 04:53 Clear 54 12.2 53 11.7 97 97 N 6 9 29.86 1011 10 16 N/A
5:53 am 05:53 Clear 49 9.4 49 9.4 100 100 WNW 6 9 29.90 1012 10 16 N/A
6:53 am 06:53 Sunny 50 10 49 9.4 96 96 W 3 6 29.92 1013 10 16 N/A
7:36 am 07:36 Partly Cloudy 53 11.7 52 11.1 96 96 W 3 6 30.00 1016 10 16 N/A
7:44 am 07:44 Mostly Cloudy 54 12 54 12 100 100 N N/A 30.00 1016 10 16 N/A
7:53 am 07:53 Cloudy 54 12.2 53 11.7 97 97 WNW 3 6 29.95 1014 10 16 N/A
8:48 am 08:48 Cloudy 61 16 57 14 88 88 NW 8 13 29.94 1014 10 16 N/A
8:53 am 08:53 Cloudy 59 15 57 13.9 93 93 NW 7 11 29.96 1015 10 16 N/A
9:34 am 09:34 Partly Cloudy 64 17.8 58 14.4 81 81 VRB 5 7 29.94 1014 10 16 N/A
9:53 am 09:53 Sunny 67 19.4 59 15 76 76 NNW 3 6 29.97 1015 10 16 N/A
10:53 am 10:53 Sunny 70 21.1 59 15 68 68 VRB 5 7 29.97 1015 10 16 N/A
11:53 am 11:53 Sunny 74 23.3 60 15.6 62 62 undefined N/A 29.95 1014 10 16 N/A
12:53 pm 12:53 Sunny 79 26.1 59 15 50 50 VRB 3 6 29.93 1014 10 16 N/A
1:53 pm 13:53 Sunny 83 28.3 58 14.4 43 43 E 8 13 29.90 1013 10 16 N/A
2:53 pm 14:53 Sunny 86 30 55 12.8 35 35 ESE 10 17 29.88 1012 10 16 N/A
3:53 pm 15:53 Sunny 89 31.7 52 11.1 28 28 ESE 12 19 29.86 1011 10 16 N/A
4:53 pm 16:53 Sunny 88 31.1 51 10.6 28 28 SE 15 24 29.87 1011 10 16 N/A
5:53 pm 17:53 Sunny 85 29.4 53 11.7 33 33 ESE 12 19 29.88 1012 10 16 N/A
6:53 pm 18:53 Sunny 76 24.4 52 11.1 43 43 E 8 13 29.90 1013 10 16 N/A
7:53 pm 19:53 Clear 68 20 49 9.4 51 51 E 8 13 29.92 1013 10 16 N/A
8:53 pm 20:53 Clear 70 21.1 54 12.2 57 57 E 10 17 29.92 1013 10 16 N/A
9:53 pm 21:53 Clear 67 19.4 57 13.9 71 71 E 6 9 29.92 1013 10 16 N/A
10:53 pm 22:53 Clear 68 20 61 16.1 78 78 E 9 15 29.91 1013 10 16 N/A
11:53 pm 23:53 Clear 64 17.8 60 15.6 87 87 E 8 13 29.90 1013 10 16 N/A

Powered by AerisWeather